CW2840 Weather Reports


time (UTC)temp
C
wind
direction
speed
KPH
gust
KPH
rain 1hr
cm
rain 24hr
cm
rain mn
cm
humidity
%
barometer
mb
20260510184744 32 171 8.0 20.9 0.00 0.03 0.00 56 1012.7
20260510183244 32 189 8.0 20.9 0.00 0.03 0.00 57 1012.9
20260510181743 31 131 3.2 17.7 0.00 0.03 0.00 57 1013.0
20260510180243 31 113 4.8 17.7 0.00 0.03 0.00 60 1013.0
20260510174743 31 171 6.4 17.7 0.00 0.03 0.00 59 1013.4
20260510173243 30 169 4.8 14.5 0.00 0.03 0.00 62 1013.5
20260510171742 30 110 4.8 17.7 0.00 0.03 0.00 66 1013.7
20260510170242 30 188 4.8 17.7 0.00 0.03 0.00 65 1013.9
20260510164742 29 165 6.4 17.7 0.00 0.03 0.00 68 1014.0
20260510163241 28 134 4.8 11.3 0.00 0.03 0.00 71 1014.4
20260510162442 28 128 3.2 11.3 0.00 0.03 0.00 74 1014.6
20260510160241 27 93 4.8 11.3 0.00 0.03 0.00 76 1014.8
20260510154740 27 118 4.8 8.0 0.00 0.03 0.00 75 1014.8
20260510153240 27 144 3.2 11.3 0.00 0.03 0.00 76 1014.8
20260510151741 27 131 4.8 11.3 0.00 0.03 0.00 77 1014.8
20260510150239 26 117 8.0 14.5 0.00 0.03 0.00 77 1014.8
20260510150150 26 344 4.8 20.9 0.00 0.03 0.00 81 1015.0
20260510143238 25 0 3.2 14.5 0.00 0.03 0.00 85 1015.1
20260510141741 24 54 3.2 8.0 0.00 0.03 0.00 88 1015.0
20260510140240 24 0 3.2 14.5 0.00 0.03 0.00 89 1015.1
20260510134737 23 357 0.0 8.0 0.00 0.03 0.00 90 1015.1
20260510133240 23 358 8.0 14.5 0.00 0.03 0.00 90 1014.9
20260510132424 23 48 1.6 11.3 0.00 0.03 0.00 90 1014.7
20260510130238 23 92 0.0 3.2 0.00 0.03 0.00 91 1014.4
20260510124737 22 92 0.0 4.8 0.00 0.03 0.00 91 1013.9
20260510123935 22 90 0.0 3.2 0.00 0.03 0.00 91 1013.7
20260510121735 22 90 0.0 3.2 0.00 0.03 0.00 91 1013.5
20260510120238 22 90 0.0 3.2 0.00 0.03 0.00 91 1013.2
20260510114737 22 90 0.0 4.8 0.00 0.03 0.00 91 1013.0
20260510113236 21 90 1.6 8.0 0.00 0.03 0.00 91 1012.8
20260510112432 21 94 3.2 8.0 0.00 0.03 0.00 91 1012.3
20260510110235 21 94 0.0 4.8 0.00 0.03 0.00 91 1011.7
20260510104732 21 94 0.0 3.2 0.00 0.03 0.00 91 1011.6
20260510103929 21 94 0.0 3.2 0.00 0.03 0.00 90 1011.4
20260510101732 21 94 0.0 4.8 0.00 0.03 0.00 90 1011.3
20260510100235 21 94 1.6 4.8 0.00 0.03 0.00 90 1011.2
20260510094732 20 94 0.0 3.2 0.00 0.03 0.00 90 1011.1
20260510093233 20 94 0.0 0.0 0.00 0.03 0.00 90 1011.0
20260510092422 21 94 0.0 3.2 0.00 0.03 0.00 90 1010.9
20260510090234 21 94 1.6 3.2 0.00 0.03 0.00 90 1010.8
20260510084731 20 94 0.0 3.2 0.00 0.03 0.00 90 1010.7
20260510083232 21 94 0.0 3.2 0.00 0.03 0.00 90 1010.9
20260510081731 21 94 0.0 3.2 0.00 0.03 0.00 90 1011.1
20260510080232 21 94 0.0 3.2 0.00 0.03 0.00 90 1011.2
20260510074730 21 94 0.0 3.2 0.00 0.03 0.00 90 1010.9
20260510073921 21 94 0.0 3.2 0.00 0.03 0.00 90 1010.9
20260510071729 21 94 0.0 3.2 0.00 0.03 0.00 89 1010.9
20260510070231 21 94 0.0 3.2 0.00 0.03 0.00 89 1011.1
20260510064729 21 94 1.6 3.2 0.00 0.03 0.00 89 1011.3
20260510063229 21 94 0.0 3.2 0.00 0.03 0.00 89 1011.2
20260510062428 21 94 0.0 0.0 0.00 0.03 0.00 89 1011.2
20260510060229 21 94 0.0 0.0 0.00 0.03 0.00 89 1011.4
20260510054727 21 94 0.0 3.2 0.00 0.03 0.00 89 1011.5
20260510053927 21 94 0.0 3.2 0.00 0.03 0.00 88 1011.4
20260510051726 21 94 0.0 3.2 0.00 0.03 0.00 88 1011.4
20260510050229 21 94 1.6 4.8 0.00 0.03 0.00 88 1011.5
20260510045426 21 94 0.0 3.2 0.00 0.03 0.03 87 1011.5
20260510043925 21 94 1.6 3.2 0.00 0.03 0.03 87 1011.6
20260510041727 21 94 0.0 3.2 0.00 0.03 0.03 86 1011.9
20260510040226 21 94 0.0 4.8 0.00 0.03 0.03 86 1011.8
20260510034724 21 94 3.2 4.8 0.03 0.00 0.03 85 1011.6
20260510033226 22 94 3.2 8.0 0.03 0.00 0.03 84 1011.7
20260510031725 22 94 3.2 11.3 0.03 0.00 0.03 83 1011.8
20260510030226 22 212 0.0 14.5 0.03 0.00 0.00 80 1012.0
20260510024724 23 111 6.4 29.0 0.00 0.00 0.00 73 1012.0
20260510023225 24 109 11.3 29.0 0.00 0.00 0.00 71 1011.4
20260510021723 26 103 16.1 25.7 0.00 0.00 0.00 70 1010.8
20260510020224 27 138 8.0 11.3 0.00 0.00 0.00 67 1010.0
20260510014722 27 188 3.2 8.0 0.00 0.00 0.00 66 1009.3
20260510014621 28 223 4.8 17.7 0.00 0.00 0.00 66 1009.3
20260510011722 28 127 1.6 4.8 0.00 0.00 0.00 68 1008.9
20260510010923 29 127 1.6 4.8 0.00 0.00 0.00 67 1008.6
20260510005426 29 127 1.6 3.2 0.00 0.00 0.00 68 1008.5
20260510003222 29 127 0.0 3.2 0.00 0.00 0.00 69 1008.3
20260510001720 29 127 0.0 3.2 0.00 0.00 0.00 69 1008.1
20260510000222 29 127 1.6 4.8 0.00 0.00 0.00 68 1008.0
20260509235415 29 127 0.0 3.2 0.00 0.00 0.00 67 1008.0
20260509233915 29 127 0.0 3.2 0.00 0.00 0.00 67 1008.1
20260509231719 30 127 0.0 8.0 0.00 0.00 0.00 65 1008.0
20260509230221 30 127 0.0 3.2 0.00 0.00 0.00 65 1007.8
20260509224718 30 127 0.0 4.8 0.00 0.00 0.00 63 1007.8
20260509223220 31 127 4.8 11.3 0.00 0.00 0.00 62 1007.9
20260509221718 31 128 6.4 11.3 0.00 0.00 0.00 61 1007.5
20260509220219 31 131 3.2 8.0 0.00 0.00 0.00 62 1007.5
20260509214717 31 131 4.8 8.0 0.00 0.00 0.00 63 1007.5
20260509213218 30 133 1.6 8.0 0.00 0.00 0.00 62 1007.7
20260509211716 31 135 3.2 11.3 0.00 0.00 0.00 63 1007.7
20260509210217 31 142 4.8 8.0 0.00 0.00 0.00 62 1007.9
20260509204715 30 157 0.0 11.3 0.00 0.00 0.00 64 1008.2
20260509203218 30 195 1.6 8.0 0.00 0.00 0.00 65 1008.2
20260509202420 30 285 3.2 11.3 0.00 0.00 0.00 62 1008.4
20260509200216 30 313 1.6 8.0 0.00 0.00 0.00 63 1008.8
20260509194715 30 226 0.0 11.3 0.00 0.00 0.00 66 1008.8
20260509193217 30 266 6.4 11.3 0.00 0.00 0.00 67 1009.0
20260509191714 30 176 3.2 11.3 0.00 0.00 0.00 68 1009.1
20260509190215 29 166 4.8 11.3 0.00 0.00 0.00 70 1009.3